Location: St. Louis
(38.6270°N, 90.1994°W)
Time: 12:26:18
(UTC-06:00)

Altair - Visible Passes

Search period start: 30 November 2021 00:00
Search period end: 10 December 2021 00:00
Orbit: 1502 x 1682 km, 47.2° (Epoch: 29 November)

Date Brightness Start Highest point End Pass type
(mag) Time Alt. Az. Time Alt. Az. Time Alt. Az.
30 Nov 7.6 16:52:18 10° WSW 17:01:49 78° NNW 17:11:06 10° ENE visible
30 Nov 7.8 18:58:30 10° WNW 19:07:30 50° N 19:09:57 42° NE visible
30 Nov 8.8 21:04:15 10° WNW 21:07:58 27° NW 21:07:58 27° NW visible
01 Dec 7.8 18:33:10 10° W 18:42:13 51° N 18:46:08 33° NE visible
01 Dec 8.4 20:39:02 10° WNW 20:44:09 36° NW 20:44:09 36° NW visible
02 Dec 7.8 18:07:51 10° W 18:16:57 52° N 18:22:19 25° ENE visible
02 Dec 8.0 20:13:48 10° WNW 20:20:20 46° NW 20:20:20 46° NW visible
03 Dec 7.8 17:42:32 10° W 17:51:41 53° N 17:58:31 19° ENE visible
03 Dec 7.7 19:48:35 10° WNW 19:56:33 55° NNW 19:56:33 55° NNW visible
03 Dec 9.5 21:53:35 10° WNW 21:54:34 14° WNW 21:54:34 14° WNW visible
04 Dec 7.8 17:17:12 10° W 17:26:25 54° N 17:34:45 12° ENE visible
04 Dec 7.5 19:23:21 10° WNW 19:32:27 56° NNE 19:32:46 56° NNE visible
04 Dec 9.2 21:28:23 10° WNW 21:30:48 21° WNW 21:30:48 21° WNW visible
05 Dec 7.8 16:51:52 10° W 17:01:09 55° NNW 17:10:11 10° ENE visible
05 Dec 7.5 18:58:05 10° WNW 19:07:12 55° NNE 19:09:02 48° NE visible
05 Dec 8.8 21:03:11 10° WNW 21:07:03 29° WNW 21:07:03 29° WNW visible
06 Dec 7.7 18:32:50 10° WNW 18:41:56 53° N 18:45:20 38° ENE visible
06 Dec 8.3 20:37:59 10° WNW 20:43:21 41° WNW 20:43:21 41° WNW visible
07 Dec 7.7 18:07:33 10° WNW 18:16:40 52° N 18:21:40 28° ENE visible
07 Dec 7.8 20:12:48 10° WNW 20:19:42 56° WNW 20:19:42 56° WNW visible
08 Dec 7.7 17:42:16 10° WNW 17:51:24 52° N 17:58:04 19° ENE visible
08 Dec 7.3 19:47:36 10° WNW 19:56:06 77° NW 19:56:06 77° NW visible
08 Dec 9.5 21:53:01 10° WNW 21:54:08 14° WNW 21:54:08 14° WNW visible
09 Dec 7.8 17:16:58 10° WNW 17:26:07 51° N 17:34:32 12° E visible
09 Dec 7.2 19:22:24 10° WNW 19:31:44 82° NNE 19:32:34 75° E visible
09 Dec 9.2 21:27:41 10° WNW 21:30:37 21° W 21:30:37 21° W visible
